This is the latest recevied weather packets stored in our database for station/object KC4BAM. If no packets are shown the sender has not sent any weather packets the latest 10 day(s).
| Time | Temp. | Humidity | Pressure | Rain* | Wind** | Luminosity | Snow |
|---|---|---|---|---|---|---|---|
| 1777912216 | 23.89° C | 50% | 1002.7 hPa | 0 mm | - | 681 W/m² | - |
| 1777911912 | 23.89° C | 50% | 1002.9 hPa | 0 mm | - | 677 W/m² | - |
| 1777911608 | 24.44° C | 50% | 1003 hPa | 0 mm | - | 682 W/m² | - |
| 1777911304 | 23.89° C | 51% | 1002.9 hPa | 0 mm | - | 662 W/m² | - |
| 1777911003 | 23.33° C | 52% | 1003 hPa | 0 mm | - | 663 W/m² | - |
| 1777910700 | 23.33° C | 52% | 1003.1 hPa | 0 mm | - | 654 W/m² | - |
| 1777910396 | 23.33° C | 52% | 1003.1 hPa | 0 mm | - | 647 W/m² | - |
| 1777910093 | 23.33° C | 52% | 1003.3 hPa | 0 mm | - | 638 W/m² | - |
| 1777909791 | 23.33° C | 53% | 1003.2 hPa | 0 mm | - | 630 W/m² | - |
| 1777909487 | 23.33° C | 53% | 1003.3 hPa | 0 mm | - | 622 W/m² | - |
| 1777909185 | 22.78° C | 53% | 1003.3 hPa | 0 mm | - | 611 W/m² | - |
| 1777908883 | 22.78° C | 54% | 1003.3 hPa | 0 mm | - | 602 W/m² | - |
| 1777908580 | 22.22° C | 54% | 1003.5 hPa | 0 mm | - | 589 W/m² | - |
| 1777908276 | 22.22° C | 54% | 1003.4 hPa | 0 mm | - | 577 W/m² | - |
| 1777907973 | 21.67° C | 55% | 1003.3 hPa | 0 mm | - | 571 W/m² | - |
| 1777907668 | 21.67° C | 55% | 1003.4 hPa | 0 mm | - | 562 W/m² | - |
| 1777907364 | 21.67° C | 55% | 1003.4 hPa | 0 mm | - | 548 W/m² | - |
| 1777907060 | 21.11° C | 56% | 1003.3 hPa | 0 mm | - | 533 W/m² | - |
| 1777906758 | 21.11° C | 56% | 1003.4 hPa | 0 mm | - | 515 W/m² | - |
| 1777906455 | 21.11° C | 56% | 1003.6 hPa | 0 mm | - | 495 W/m² | - |
| 1777906151 | 21.11° C | 56% | 1003.5 hPa | 0 mm | - | 483 W/m² | - |
| 1777905848 | 21.11° C | 56% | 1003.4 hPa | 0 mm | - | 456 W/m² | - |
| 1777905545 | 20.56° C | 57% | 1003.5 hPa | 0 mm | - | 471 W/m² | - |
| 1777905242 | 20° C | 58% | 1003.7 hPa | 0 mm | - | 447 W/m² | - |
| 1777904939 | 20° C | 57% | 1003.8 hPa | 0 mm | - | 433 W/m² | - |
* Rain latest hour (hover to see other rain measurements)
** Current wind speed in m/s (hover to see current wind gust speed)